This is the latest recevied weather packets stored in our database for station/object OK0BH-6. If no packets are shown the sender has not sent any weather packets the latest 10 day(s).
| Time | Temp. | Humidity | Pressure | Rain* | Wind** | Luminosity | Snow |
|---|---|---|---|---|---|---|---|
| 1777780355 | 12.22° C | 34% | 1018.9 hPa | - | - | - | - |
| 1777779781 | 12.22° C | 34% | 1018.9 hPa | - | - | - | - |
| 1777779206 | 12.22° C | 34% | 1018.8 hPa | - | - | - | - |
| 1777778631 | 12.22° C | 33% | 1018.9 hPa | - | - | - | - |
| 1777778056 | 12.22° C | 33% | 1019 hPa | - | - | - | - |
| 1777777481 | 12.22° C | 33% | 1018.8 hPa | - | - | - | - |
| 1777776906 | 12.78° C | 33% | 1018.9 hPa | - | - | - | - |
| 1777776331 | 12.22° C | 33% | 1018.8 hPa | - | - | - | - |
| 1777775757 | 12.78° C | 33% | 1018.8 hPa | - | - | - | - |
| 1777775182 | 12.78° C | 32% | 1018.8 hPa | - | - | - | - |
| 1777774607 | 12.78° C | 32% | 1018.8 hPa | - | - | - | - |
| 1777774032 | 13.33° C | 32% | 1018.9 hPa | - | - | - | - |
| 1777773457 | 13.33° C | 31% | 1019 hPa | - | - | - | - |
| 1777772882 | 13.89° C | 31% | 1019 hPa | - | - | - | - |
| 1777772307 | 14.44° C | 31% | 1019 hPa | - | - | - | - |
| 1777771732 | 15° C | 30% | 1019.1 hPa | - | - | - | - |
| 1777771158 | 15.56° C | 30% | 1019 hPa | - | - | - | - |
| 1777770583 | 16.11° C | 30% | 1019 hPa | - | - | - | - |
| 1777770008 | 17.22° C | 29% | 1019.1 hPa | - | - | - | - |
| 1777769433 | 17.78° C | 29% | 1019.3 hPa | - | - | - | - |
| 1777768858 | 17.78° C | 30% | 1019.1 hPa | - | - | - | - |
| 1777768283 | 17.78° C | 29% | 1019.3 hPa | - | - | - | - |
| 1777767708 | 17.78° C | 29% | 1019.4 hPa | - | - | - | - |
| 1777767133 | 18.33° C | 30% | 1019.3 hPa | - | - | - | - |
| 1777766558 | 17.78° C | 29% | 1019.3 hPa | - | - | - | - |
* Rain since midnight (hover to see other rain measurements)
** Current wind speed in m/s (hover to see current wind gust speed)